Change the Weather History Date:

Saturday, November 1, 2014

  Actual Average Record
Temperature  
Mean Temperature 46 °F -  
Max Temperature 52 °F 60 °F 80 °F (1960)
Min Temperature 41 °F 28 °F 10 °F (2002)
Degree Days  
Heating Degree Days 18    
Moisture  
Dew Point 38 °F    
Average Humidity 76    
Maximum Humidity 97    
Minimum Humidity 50    
Precipitation  
Precipitation 0.34 in - - ()
Sea Level Pressure  
Sea Level Pressure 29.71 in    
Wind  
Wind Speed 12 mph (WNW)    
Max Wind Speed 18 mph    
Max Gust Speed 25 mph    
Visibility 9 miles    
Events Rain    
Averages and records for this station are not official NWS values.
T = Trace of Precipitation, MM = Missing Value Source: NWS Daily Summary

Daily Weather History Graph

Daily Weather History Graph

Search for Another Location

Airport or City:

Trip Planner

Search our weather history database for the weather conditions in past years. The results will help you decide how hot, cold, wet, or windy it might be!

Date:

Astronomy

Nov. 01, 2014 Rise Set
Actual Time 7:22 AM PDT 5:53 PM PDT
Civil Twilight 6:55 AM PDT 6:21 PM PDT
Nautical Twilight 6:23 AM PDT 6:52 PM PDT
Astronomical Twilight 5:52 AM PDT 7:24 PM PDT
Moon 2:48 PM PDT (11/1) 1:25 AM PDT (11/1)
Length of Visible Light 11h 25m
Length of Day
10h 30m
Waxing Gibbous, 69% of the Moon is Illuminated
Nov 1
Waxing Gibbous
Nov 6
Full
Nov 14
Last Quarter
Nov 22
New
Nov 29
First Quarter

Hourly Weather History & Observations

Time (PDT) Temp. Windchill Dew Point Humidity Pressure Visibility Wind Dir Wind Speed Gust Speed Precip Events Conditions
12:56 AM 51.1 °F - 39.0 °F 63% 29.56 in 10.0 mi NNW 13.8 mph - 0.00 in   Overcast
1:56 AM 46.0 °F 39.3 °F 41.0 °F 83% 29.58 in 10.0 mi WNW 16.1 mph 23.0 mph 0.00 in Rain Light Rain
2:10 AM 45.0 °F 37.4 °F 42.1 °F 90% 29.62 in 9.0 mi West 18.4 mph - 0.00 in Rain Light Rain
2:44 AM 44.1 °F 36.2 °F 41.0 °F 89% 29.63 in 4.0 mi West 18.4 mph 25.3 mph 0.04 in Rain Rain
2:56 AM 43.0 °F 35.4 °F 41.0 °F 93% 29.58 in 5.0 mi West 16.1 mph - 0.07 in Rain Rain
3:56 AM 43.0 °F 40.3 °F 42.1 °F 97% 29.55 in 8.0 mi NW 4.6 mph - 0.13 in Rain Light Rain
4:56 AM 43.0 °F 38.8 °F 39.9 °F 89% 29.57 in 8.0 mi WSW 6.9 mph - 0.01 in Rain Light Rain
5:56 AM 43.0 °F 37.2 °F 39.0 °F 86% 29.59 in 7.0 mi West 10.4 mph - 0.05 in Rain Light Rain
6:33 AM 42.1 °F 37.7 °F 39.9 °F 92% 29.64 in 7.0 mi WSW 6.9 mph - 0.03 in Rain Light Rain
6:46 AM 42.1 °F 39.2 °F 39.9 °F 92% 29.64 in 7.0 mi WSW 4.6 mph - 0.04 in Rain Light Rain
6:56 AM 43.0 °F 40.3 °F 41.0 °F 93% 29.60 in 9.0 mi WSW 4.6 mph - 0.04 in Rain Light Rain
7:56 AM 43.0 °F 37.7 °F 39.0 °F 86% 29.62 in 10.0 mi West 9.2 mph - 0.03 in Rain Light Rain
8:14 AM 43.0 °F 37.7 °F 39.0 °F 86% 29.68 in 10.0 mi West 9.2 mph - 0.01 in Rain Light Rain
8:56 AM 44.1 °F 37.1 °F 37.9 °F 79% 29.66 in 10.0 mi SW 15.0 mph - 0.01 in Rain Light Rain
9:56 AM 46.0 °F 39.6 °F 37.0 °F 71% 29.68 in 10.0 mi WSW 15.0 mph - 0.00 in   Overcast
10:56 AM 48.9 °F - 35.1 °F 59% 29.71 in 10.0 mi WSW 15.0 mph - N/A   Overcast
11:56 AM 51.1 °F - 34.0 °F 52% 29.73 in 10.0 mi WNW 17.3 mph 23.0 mph N/A   Overcast
12:56 PM 50.0 °F - 32.0 °F 50% 29.75 in 10.0 mi WNW 16.1 mph 23.0 mph N/A   Overcast
1:56 PM 48.0 °F - 35.1 °F 61% 29.75 in 10.0 mi NW 13.8 mph - N/A   Overcast
2:56 PM 50.0 °F - 36.0 °F 59% 29.76 in 10.0 mi NW 12.7 mph - N/A   Mostly Cloudy
3:56 PM 52.0 °F - 34.0 °F 50% 29.77 in 10.0 mi WNW 10.4 mph - N/A   Mostly Cloudy
4:56 PM 48.9 °F - 35.1 °F 59% 29.79 in 10.0 mi NNW 11.5 mph - N/A   Mostly Cloudy
5:56 PM 46.0 °F 42.5 °F 36.0 °F 68% 29.81 in 10.0 mi North 6.9 mph - N/A   Mostly Cloudy
6:56 PM 46.0 °F 43.1 °F 36.0 °F 68% 29.83 in 10.0 mi NNW 5.8 mph - N/A   Overcast
7:56 PM 44.1 °F 40.8 °F 36.0 °F 73% 29.86 in 10.0 mi North 5.8 mph - N/A   Overcast
8:56 PM 43.0 °F 41.3 °F 37.0 °F 80% 29.87 in 10.0 mi North 3.5 mph - N/A   Overcast
9:56 PM 42.1 °F 39.2 °F 37.0 °F 82% 29.89 in 10.0 mi West 4.6 mph - N/A   Overcast
10:56 PM 41.0 °F 39.0 °F 36.0 °F 82% 29.90 in 10.0 mi West 3.5 mph - N/A   Scattered Clouds
11:56 PM 43.0 °F 38.8 °F 35.1 °F 74% 29.91 in 10.0 mi WNW 6.9 mph - N/A   Overcast